FW3814 Weather Reports


time (UTC)temp
C
wind
direction
speed
KPH
gust
KPH
rain 1hr
cm
rain 24hr
cm
rain mn
cm
humidity
%
barometer
mb
20260905065005 22 0 0.0 0.0 0.00 0.00 0.00 65 1016.3
20260905064505 22 0 0.0 0.0 0.00 0.00 0.00 65 1016.5
20260905064026 22 0 0.0 0.0 0.00 0.00 0.00 64 1016.4
20260905063505 22 0 0.0 0.0 0.00 0.00 0.00 65 1016.4
20260905063026 22 0 0.0 0.0 0.00 0.00 0.00 65 1016.5
20260905062505 22 0 0.0 0.0 0.00 0.00 0.00 65 1016.3
20260905062005 22 0 0.0 0.0 0.00 0.00 0.00 65 1016.4
20260905061505 22 0 0.0 0.0 0.00 0.00 0.00 64 1016.3
20260905061005 22 0 0.0 0.0 0.00 0.00 0.00 65 1016.2
20260905060505 22 0 0.0 0.0 0.00 0.00 0.00 66 1016.1
20260905060005 22 0 0.0 0.0 0.00 0.00 0.00 66 1016.2
20260905055505 22 0 0.0 0.0 0.00 0.00 0.00 70 1016.1
20260905055005 22 0 0.0 0.0 0.00 0.00 0.00 70 1016.3
20260905054505 21 8 1.6 6.4 0.00 0.00 0.00 71 1016.1
20260905054026 21 11 4.8 6.4 0.00 0.00 0.00 72 1016.2
20260905053505 21 12 3.2 6.4 0.00 0.00 0.00 72 1016.1
20260905053005 20 360 1.6 4.8 0.00 0.00 0.00 72 1016.1
20260905052505 20 8 3.2 8.0 0.00 0.00 0.00 72 1016.0
20260905052026 20 11 6.4 8.0 0.00 0.00 0.00 72 1016.0
20260905051505 20 8 4.8 8.0 0.00 0.00 0.00 71 1015.9
20260905051005 20 348 3.2 6.4 0.00 0.00 0.00 70 1015.8
20260905050505 20 343 1.6 4.8 0.00 0.00 0.00 70 1015.9
20260905050005 20 350 1.6 4.8 0.00 0.00 0.00 69 1015.9
20260905045505 20 354 4.8 8.0 0.00 0.00 0.00 68 1015.7
20260905045026 21 1 4.8 8.0 0.00 0.00 0.00 68 1015.6
20260905044505 21 6 4.8 6.4 0.00 0.00 0.00 68 1015.6
20260905044026 21 11 3.2 6.4 0.00 0.00 0.00 68 1015.7
20260905043526 21 20 3.2 6.4 0.00 0.00 0.00 68 1015.6
20260905043005 21 26 3.2 6.4 0.00 0.00 0.00 68 1015.5
20260905042505 21 30 3.2 6.4 0.00 0.00 0.00 69 1015.2
20260905042026 21 30 3.2 9.7 0.00 0.00 0.00 69 1015.2
20260905041505 21 19 4.8 9.7 0.00 0.00 0.00 70 1015.5
20260905041005 21 17 3.2 8.0 0.00 0.00 0.00 70 1015.5
20260905040505 21 2 1.6 6.4 0.00 0.00 0.00 70 1015.5
20260905040026 21 1 1.6 6.4 0.00 0.00 0.00 70 1015.3
20260905035505 21 360 0.0 1.6 0.00 0.00 0.00 70 1015.5
20260905035005 21 0 0.0 0.0 0.00 0.00 0.00 69 1015.5
20260905034505 21 0 0.0 0.0 0.00 0.00 0.00 70 1015.5
20260905034026 21 60 0.0 3.2 0.00 0.00 0.00 70 1015.7
20260905033526 20 60 0.0 3.2 0.00 0.00 0.00 70 1015.5
20260905033005 21 0 0.0 0.0 0.00 0.00 0.00 69 1015.6
20260905032505 21 0 0.0 0.0 0.00 0.00 0.00 68 1015.7
20260905032005 21 0 0.0 0.0 0.00 0.00 0.00 67 1015.7
20260905031505 21 0 0.0 0.0 0.00 0.00 0.00 66 1015.6
20260905031005 21 14 1.6 6.4 0.00 0.00 0.00 66 1016.0
20260905030505 21 18 4.8 6.4 0.00 0.00 0.00 66 1016.0
20260905030005 21 13 4.8 6.4 0.00 0.00 0.00 67 1015.8
20260905025505 21 1 4.8 6.4 0.00 0.00 0.00 67 1015.7
20260905025005 21 353 3.2 6.4 0.00 0.00 0.00 67 1015.9
20260905024526 21 360 1.6 6.4 0.00 0.00 0.00 66 1015.8
20260905024026 21 352 3.2 6.4 0.00 0.00 0.00 66 1015.9
20260905023505 21 357 3.2 6.4 0.00 0.00 0.00 66 1015.9
20260905023005 21 9 4.8 6.4 0.00 0.00 0.00 65 1015.7
20260905022505 22 13 4.8 6.4 0.00 0.00 0.00 65 1015.8
20260905022005 22 2 3.2 6.4 0.00 0.00 0.00 65 1015.8
20260905021505 22 10 4.8 9.7 0.00 0.00 0.00 65 1015.7
20260905021005 22 56 8.0 9.7 0.00 0.00 0.00 65 1015.8
20260905020505 22 53 8.0 9.7 0.00 0.00 0.00 65 1015.7
20260905020005 22 17 6.4 9.7 0.00 0.00 0.00 65 1015.9
20260905015505 22 15 6.4 9.7 0.00 0.00 0.00 65 1016.0
20260905015026 22 20 6.4 9.7 0.00 0.00 0.00 65 1016.1
20260905014526 22 17 4.8 8.0 0.00 0.00 0.00 65 1016.0
20260905014005 22 7 4.8 6.4 0.00 0.00 0.00 64 1016.2
20260905013505 22 7 4.8 9.7 0.00 0.00 0.00 61 1016.1
20260905013005 22 23 4.8 9.7 0.00 0.00 0.00 61 1016.2
20260905012526 22 28 4.8 9.7 0.00 0.00 0.00 61 1016.1
20260905012026 22 33 1.6 6.4 0.00 0.00 0.00 61 1016.1
20260905011505 22 34 1.6 4.8 0.00 0.00 0.00 61 1016.4
20260905011005 22 37 1.6 4.8 0.00 0.00 0.00 61 1016.1
20260905010526 22 0 0.0 0.0 0.00 0.00 0.00 60 1016.2
20260905010005 22 0 0.0 0.0 0.00 0.00 0.00 60 1016.2
20260905005526 22 67 0.0 1.6 0.00 0.00 0.00 60 1016.2
20260905005005 22 39 0.0 1.6 0.00 0.00 0.00 60 1016.3
20260905004505 22 22 0.0 1.6 0.00 0.00 0.00 60 1016.2
20260905004005 23 39 0.0 1.6 0.00 0.00 0.00 60 1016.3
20260905003505 23 42 0.0 1.6 0.00 0.00 0.00 59 1016.3
20260905003005 22 22 0.0 1.6 0.00 0.00 0.00 58 1016.3
20260905002505 22 22 0.0 1.6 0.00 0.00 0.00 56 1016.6
20260905002005 22 0 0.0 0.0 0.00 0.00 0.00 57 1016.5
20260905001505 22 0 0.0 0.0 0.00 0.00 0.00 61 1016.6
20260905001005 22 0 0.0 0.0 0.00 0.00 0.00 61 1016.5
20260905000505 22 0 0.0 0.0 0.00 0.00 0.00 58 1016.5
20260905000005 22 0 0.0 0.0 0.00 0.00 0.00 58 1016.8
20260904235505 22 0 0.0 0.0 0.00 0.00 0.00 58 1016.8
20260904235026 22 0 0.0 0.0 0.00 0.00 0.00 57 1016.7
20260904234505 22 0 0.0 0.0 0.00 0.00 0.00 57 1016.5
20260904234005 22 0 0.0 0.0 0.00 0.00 0.00 56 1016.8
20260904233505 22 0 0.0 0.0 0.00 0.00 0.00 55 1016.8
20260904233005 22 0 0.0 0.0 0.00 0.00 0.00 53 1016.8
20260904232505 22 0 0.0 0.0 0.00 0.00 0.00 53 1016.8
20260904232026 22 0 0.0 0.0 0.00 0.00 0.00 53 1016.7
20260904231025 23 67 0.0 1.6 0.00 0.00 0.00 53 1016.7
20260904230525 23 67 0.0 1.6 0.00 0.00 0.00 52 1016.6
20260904230004 23 0 0.0 0.0 0.00 0.00 0.00 52 1016.8
20260904225504 23 0 0.0 0.0 0.00 0.00 0.00 51 1016.7
20260904225004 23 0 0.0 0.0 0.00 0.00 0.00 51 1016.8
20260904224504 22 0 0.0 0.0 0.00 0.00 0.00 51 1016.9
20260904224004 22 0 0.0 0.0 0.00 0.00 0.00 50 1016.8
20260904223504 23 0 0.0 0.0 0.00 0.00 0.00 50 1016.9
20260904223004 23 0 0.0 0.0 0.00 0.00 0.00 51 1017.0
20260904222504 23 0 0.0 0.0 0.00 0.00 0.00 50 1016.9
20260904222004 23 0 0.0 0.0 0.00 0.00 0.00 49 1017.0
20260904221504 23 0 0.0 0.0 0.00 0.00 0.00 48 1016.7
20260904221004 23 0 0.0 0.0 0.00 0.00 0.00 45 1016.8
20260904220504 23 0 0.0 0.0 0.00 0.00 0.00 42 1016.9
20260904220004 23 0 0.0 0.0 0.00 0.00 0.00 42 1016.9
20260904215504 23 0 0.0 0.0 0.00 0.00 0.00 41 1016.8
20260904215004 23 0 0.0 0.0 0.00 0.00 0.00 42 1017.0
20260904214504 23 67 0.0 1.6 0.00 0.00 0.00 44 1016.9
20260904214025 23 67 0.0 1.6 0.00 0.00 0.00 44 1017.0
20260904213504 23 0 0.0 0.0 0.00 0.00 0.00 43 1017.2
20260904213004 24 0 0.0 0.0 0.00 0.00 0.00 42 1017.3
20260904212504 24 0 0.0 0.0 0.00 0.00 0.00 41 1017.0
20260904212004 24 0 0.0 0.0 0.00 0.00 0.00 42 1017.1
20260904211525 24 0 0.0 0.0 0.00 0.00 0.00 43 1017.1
20260904211004 24 0 0.0 0.0 0.00 0.00 0.00 43 1017.2
20260904210525 25 0 0.0 0.0 0.00 0.00 0.00 44 1017.2
20260904210004 25 0 0.0 0.0 0.00 0.00 0.00 44 1017.2
20260904205504 24 0 0.0 0.0 0.00 0.00 0.00 45 1017.3
20260904205025 24 0 0.0 0.0 0.00 0.00 0.00 46 1017.4
20260904204504 25 0 0.0 0.0 0.00 0.00 0.00 48 1017.3
20260904204004 25 0 0.0 0.0 0.00 0.00 0.00 48 1017.5
20260904203504 25 0 0.0 0.0 0.00 0.00 0.00 49 1017.4
20260904203004 25 0 0.0 0.0 0.00 0.00 0.00 49 1017.4
20260904202504 25 0 0.0 0.0 0.00 0.00 0.00 49 1017.4
20260904202004 25 0 0.0 0.0 0.00 0.00 0.00 49 1017.4
20260904201504 25 0 0.0 0.0 0.00 0.00 0.00 50 1017.4
20260904201025 25 0 0.0 0.0 0.00 0.00 0.00 50 1017.5
20260904200525 25 0 0.0 0.0 0.00 0.00 0.00 51 1017.4
20260904200004 25 0 0.0 0.0 0.00 0.00 0.00 51 1017.3
20260904195525 25 0 0.0 0.0 0.00 0.00 0.00 52 1017.4
20260904195004 25 0 0.0 0.0 0.00 0.00 0.00 54 1017.3
20260904194504 25 0 0.0 0.0 0.00 0.00 0.00 55 1017.3
20260904194004 25 135 0.0 3.2 0.00 0.00 0.00 56 1017.3
20260904193504 25 135 0.0 3.2 0.00 0.00 0.00 55 1017.2
20260904193004 26 0 0.0 0.0 0.00 0.00 0.00 54 1017.3
20260904192504 26 0 0.0 0.0 0.00 0.00 0.00 53 1017.0
20260904192004 26 0 0.0 0.0 0.00 0.00 0.00 53 1017.0
20260904191525 26 0 0.0 0.0 0.00 0.00 0.00 52 1017.1
20260904191004 26 0 0.0 0.0 0.00 0.00 0.00 52 1017.2
20260904190504 26 0 0.0 0.0 0.00 0.00 0.00 52 1017.0
20260904190004 26 0 0.0 0.0 0.00 0.00 0.00 52 1017.1
20260904185504 26 0 0.0 0.0 0.00 0.00 0.00 52 1017.0
20260904185025 26 0 0.0 0.0 0.00 0.00 0.00 52 1016.9
20260904184504 27 0 0.0 0.0 0.00 0.00 0.00 51 1017.0
20260904184025 27 0 0.0 0.0 0.00 0.00 0.00 51 1016.8
20260904183525 27 0 0.0 0.0 0.00 0.00 0.00 51 1016.9
20260904183004 27 0 0.0 0.0 0.00 0.00 0.00 50 1016.8
20260904182525 27 0 0.0 0.0 0.00 0.00 0.00 50 1016.8
20260904182004 27 0 0.0 0.0 0.00 0.00 0.00 46 1016.8
20260904181504 27 0 0.0 0.0 0.00 0.00 0.00 45 1016.8
20260904181004 27 0 0.0 0.0 0.00 0.00 0.00 44 1016.8
20260904180504 28 0 0.0 0.0 0.00 0.00 0.00 43 1016.7
20260904180004 28 0 0.0 0.0 0.00 0.00 0.00 43 1016.8
20260904175504 28 0 0.0 0.0 0.00 0.00 0.00 43 1016.7
20260904175004 28 0 0.0 0.0 0.00 0.00 0.00 43 1016.7
20260904174504 28 0 0.0 0.0 0.00 0.00 0.00 43 1016.6
20260904174004 28 0 0.0 0.0 0.00 0.00 0.00 43 1016.8
20260904173504 29 0 0.0 0.0 0.00 0.00 0.00 44 1016.5
20260904173004 29 0 0.0 0.0 0.00 0.00 0.00 42 1016.6
20260904172504 29 0 0.0 0.0 0.00 0.00 0.00 42 1016.4
20260904172004 30 0 0.0 0.0 0.00 0.00 0.00 41 1016.4
20260904171504 30 0 0.0 0.0 0.00 0.00 0.00 41 1016.6
20260904171004 30 0 0.0 0.0 0.00 0.00 0.00 40 1016.6
20260904170525 31 0 0.0 0.0 0.00 0.00 0.00 40 1016.6
20260904170025 31 0 0.0 0.0 0.00 0.00 0.00 40 1016.7
20260904165504 31 0 0.0 0.0 0.00 0.00 0.00 40 1016.6
20260904165004 31 0 0.0 0.0 0.00 0.00 0.00 40 1016.6
20260904164504 32 0 0.0 0.0 0.00 0.00 0.00 39 1016.8
20260904164004 32 0 0.0 0.0 0.00 0.00 0.00 38 1016.7
20260904163504 32 0 0.0 0.0 0.00 0.00 0.00 37 1016.8
20260904163004 32 0 0.0 0.0 0.00 0.00 0.00 37 1016.7
20260904162525 32 0 0.0 0.0 0.00 0.00 0.00 37 1016.8
20260904162004 32 0 0.0 0.0 0.00 0.00 0.00 37 1016.8
20260904161504 32 0 0.0 0.0 0.00 0.00 0.00 36 1016.9
20260904161004 32 0 0.0 0.0 0.00 0.00 0.00 36 1016.8
20260904160504 32 315 0.0 1.6 0.00 0.00 0.00 35 1016.8
20260904160004 32 315 0.0 1.6 0.00 0.00 0.00 35 1016.9
20260904155504 32 307 0.0 1.6 0.00 0.00 0.00 32 1017.1
20260904155004 32 271 0.0 1.6 0.00 0.00 0.00 32 1016.9
20260904154525 32 285 0.0 1.6 0.00 0.00 0.00 33 1017.1
20260904154004 32 309 0.0 1.6 0.00 0.00 0.00 33 1017.0
20260904153504 32 297 0.0 1.6 0.00 0.00 0.00 32 1017.0
20260904153004 32 281 0.0 1.6 0.00 0.00 0.00 33 1017.2
20260904152504 32 0 0.0 0.0 0.00 0.00 0.00 33 1017.1
20260904152004 32 0 0.0 0.0 0.00 0.00 0.00 33 1017.1
20260904151504 32 181 0.0 3.2 0.00 0.00 0.00 37 1017.2
20260904151004 32 243 1.6 3.2 0.00 0.00 0.00 36 1017.2
20260904150504 32 258 1.6 3.2 0.00 0.00 0.00 33 1017.3
20260904150004 32 290 1.6 6.4 0.00 0.00 0.00 33 1017.3
20260904145504 32 296 1.6 6.4 0.00 0.00 0.00 33 1017.3
20260904145004 32 318 1.6 6.4 0.00 0.00 0.00 33 1017.4
20260904144504 32 306 1.6 6.4 0.00 0.00 0.00 33 1017.3
20260904144004 32 288 1.6 6.4 0.00 0.00 0.00 32 1017.4
20260904143525 32 235 3.2 12.9 0.00 0.00 0.00 32 1017.5
20260904143004 32 234 3.2 12.9 0.00 0.00 0.00 32 1017.4
20260904142504 32 305 0.0 3.2 0.00 0.00 0.00 32 1017.5
20260904142004 32 307 0.0 3.2 0.00 0.00 0.00 32 1017.5
20260904141525 32 262 1.6 6.4 0.00 0.00 0.00 33 1017.7
20260904141025 32 251 1.6 6.4 0.00 0.00 0.00 33 1017.7
20260904140504 32 0 0.0 0.0 0.00 0.00 0.00 33 1017.7
20260904140004 32 247 0.0 1.6 0.00 0.00 0.00 33 1017.5
20260904135504 32 247 0.0 1.6 0.00 0.00 0.00 38 1017.7
20260904135004 32 281 1.6 8.0 0.00 0.00 0.00 39 1017.5
20260904134504 31 246 6.4 12.9 0.00 0.00 0.00 38 1017.6
20260904134004 32 236 9.7 12.9 0.00 0.00 0.00 38 1017.7
20260904133504 31 235 4.8 12.9 0.00 0.00 0.00 39 1017.8
20260904133004 31 309 1.6 6.4 0.00 0.00 0.00 39 1017.6
20260904132504 31 313 3.2 6.4 0.00 0.00 0.00 38 1017.8
20260904132004 31 241 4.8 12.9 0.00 0.00 0.00 38 1017.8
20260904131504 31 219 4.8 12.9 0.00 0.00 0.00 38 1017.9
20260904131004 31 244 6.4 12.9 0.00 0.00 0.00 39 1017.9
20260904130504 31 247 4.8 9.7 0.00 0.00 0.00 39 1017.9
20260904130004 31 240 0.0 9.7 0.00 0.00 0.00 39 1017.9
20260904125504 31 178 1.6 8.0 0.00 0.00 0.00 40 1018.3
20260904125004 31 193 3.2 12.9 0.00 0.00 0.00 39 1018.0
20260904124504 31 117 3.2 12.9 0.00 0.00 0.00 39 1018.4
20260904124004 31 71 1.6 9.7 0.00 0.00 0.00 39 1018.4
20260904123525 31 297 0.0 4.8 0.00 0.00 0.00 40 1018.4
20260904123004 31 283 1.6 6.4 0.00 0.00 0.00 40 1018.5
20260904122504 31 173 3.2 8.0 0.00 0.00 0.00 40 1018.4
20260904122004 31 141 3.2 8.0 0.00 0.00 0.00 39 1018.5
20260904121504 31 161 3.2 8.0 0.00 0.00 0.00 40 1018.4
20260904121004 31 179 1.6 6.4 0.00 0.00 0.00 40 1018.6
20260904120504 31 315 0.0 1.6 0.00 0.00 0.00 40 1018.5
20260904120004 31 228 0.0 1.6 0.00 0.00 0.00 40 1018.6
20260904115504 31 232 0.0 1.6 0.00 0.00 0.00 40 1018.6
20260904115004 31 105 0.0 3.2 0.00 0.00 0.00 40 1018.5
20260904114504 30 98 0.0 3.2 0.00 0.00 0.00 40 1018.8
20260904114004 30 220 1.6 8.0 0.00 0.00 0.00 40 1018.5
20260904113504 30 218 4.8 9.7 0.00 0.00 0.00 40 1018.8
20260904113004 30 213 3.2 9.7 0.00 0.00 0.00 40 1018.8
20260904112504 30 194 0.0 6.4 0.00 0.00 0.00 40 1018.8
20260904112004 30 82 0.0 1.6 0.00 0.00 0.00 40 1018.8
20260904111504 30 180 1.6 4.8 0.00 0.00 0.00 39 1018.9
20260904111004 30 190 1.6 4.8 0.00 0.00 0.00 40 1018.9
20260904110504 30 227 1.6 6.4 0.00 0.00 0.00 40 1018.9
20260904110004 30 231 1.6 6.4 0.00 0.00 0.00 40 1018.9
20260904105525 30 315 0.0 1.6 0.00 0.00 0.00 40 1018.9
20260904105004 30 0 0.0 0.0 0.00 0.00 0.00 41 1019.0
20260904104504 30 0 0.0 0.0 0.00 0.00 0.00 40 1019.0
20260904104004 30 179 1.6 4.8 0.00 0.00 0.00 40 1019.1
20260904103525 30 183 1.6 4.8 0.00 0.00 0.00 40 1019.2
20260904103004 30 202 0.0 1.6 0.00 0.00 0.00 40 1019.1
20260904102525 30 0 0.0 0.0 0.00 0.00 0.00 40 1019.1
20260904102004 30 67 0.0 1.6 0.00 0.00 0.00 40 1019.4
20260904101504 30 67 0.0 1.6 0.00 0.00 0.00 40 1019.3
20260904101025 30 0 0.0 0.0 0.00 0.00 0.00 41 1019.3
20260904100504 29 0 0.0 0.0 0.00 0.00 0.00 42 1019.4
20260904100025 29 0 0.0 0.0 0.00 0.00 0.00 42 1019.3
20260904095525 28 22 0.0 1.6 0.00 0.00 0.00 42 1019.6
20260904095004 28 22 0.0 1.6 0.00 0.00 0.00 42 1019.6
20260904094504 28 0 0.0 0.0 0.00 0.00 0.00 43 1019.6
20260904094004 28 0 0.0 0.0 0.00 0.00 0.00 43 1019.6
20260904093504 28 0 0.0 0.0 0.00 0.00 0.00 43 1019.7
20260904093004 28 315 0.0 1.6 0.00 0.00 0.00 43 1019.8
20260904092504 28 315 0.0 1.6 0.00 0.00 0.00 44 1019.7
20260904092004 28 360 0.0 3.2 0.00 0.00 0.00 43 1019.8
20260904091504 28 7 0.0 3.2 0.00 0.00 0.00 44 1019.9
20260904091004 28 15 0.0 1.6 0.00 0.00 0.00 44 1019.7
20260904090504 28 0 0.0 0.0 0.00 0.00 0.00 44 1019.7
20260904090004 28 0 0.0 0.0 0.00 0.00 0.00 44 1019.6
20260904085504 28 0 0.0 0.0 0.00 0.00 0.00 44 1019.6
20260904085025 28 0 0.0 0.0 0.00 0.00 0.00 44 1019.6
20260904084504 28 0 0.0 0.0 0.00 0.00 0.00 44 1019.7
20260904084004 28 0 0.0 0.0 0.00 0.00 0.00 43 1019.7
20260904083504 27 0 0.0 0.0 0.00 0.00 0.00 44 1019.5
20260904083004 27 0 0.0 0.0 0.00 0.00 0.00 44 1019.6
20260904082504 27 0 0.0 0.0 0.00 0.00 0.00 48 1019.7
20260904082004 27 0 0.0 0.0 0.00 0.00 0.00 48 1019.7
20260904081504 27 0 0.0 0.0 0.00 0.00 0.00 49 1019.7
20260904081025 27 0 0.0 0.0 0.00 0.00 0.00 49 1019.5
20260904080504 26 0 0.0 0.0 0.00 0.00 0.00 50 1019.7
20260904080004 26 0 0.0 0.0 0.00 0.00 0.00 50 1019.6
20260904075504 26 0 0.0 0.0 0.00 0.00 0.00 50 1019.6
20260904075004 26 0 0.0 0.0 0.00 0.00 0.00 51 1019.5
20260904074504 26 0 0.0 0.0 0.00 0.00 0.00 51 1019.6
20260904074025 26 0 0.0 0.0 0.00 0.00 0.00 52 1019.6
20260904073504 25 0 0.0 0.0 0.00 0.00 0.00 52 1019.5
20260904073004 25 0 0.0 0.0 0.00 0.00 0.00 52 1019.6
20260904072525 25 0 0.0 0.0 0.00 0.00 0.00 52 1019.5
20260904072004 25 0 0.0 0.0 0.00 0.00 0.00 52 1019.4
20260904071504 25 360 0.0 4.8 0.00 0.00 0.00 52 1019.5
20260904071004 25 360 3.2 4.8 0.00 0.00 0.00 52 1019.4
20260904070504 24 5 3.2 4.8 0.00 0.00 0.00 52 1019.2
20260904070004 24 26 1.6 4.8 0.00 0.00 0.00 52 1019.2
20260904065504 24 49 0.0 3.2 0.00 0.00 0.00 52 1019.2